Cut Bank, MT

10:13 AM MDT on October 17, 2019 (GMT -0600)
Cut Bank Municipal

Weather History for KCTB - August, 2019

Change the Weather History Date:

Friday, August 23, 2019

  Actual Average Record
Temperature  
Mean Temperature 65 °F 62 °F  
Max Temperature 79 °F 77 °F 98 °F (1930)
Min Temperature 51 °F 47 °F 31 °F (1992)
Degree Days  
Heating Degree Days 0 4  
Month to date heating degree days 46 65  
Since 1 June heating degree days 361 384  
Since 1 July heating degree days 139 151  
Cooling Degree Days 0 1  
Month to date cooling degree days 49 57  
Year to date cooling degree days 102 146  
Since 1 June cooling degree days 102 144  
Growing Degree Days 15 (Base 50)    
Moisture  
Dew Point 50 °F    
Average Humidity 68    
Maximum Humidity 97    
Minimum Humidity 31    
Precipitation  
Precipitation 0.03 in 0.04 in 1.02 in (1975)
Month to date precipitation 1.24 0.87  
Year to date precipitation 8.65 8.34  
Snow  
Snow 0.00 in - - ()
Snow Depth 0.00 in    
Sea Level Pressure  
Sea Level Pressure 29.95 in    
Wind  
Wind Speed 9 mph ()    
Max Wind Speed 22 mph    
Max Gust Speed 27 mph    
Visibility 9.5 miles    
Events Rain    
T = Trace of Precipitation, MM = Missing Value Source: Averaged Metar Reports

Daily Weather History Graph

Daily Weather History Graph

Search for Another Location

Airport or City:

Astronomy

Aug. 23, 2019 Rise Set
Actual Time 6:33 AM MDT 8:29 PM MDT
Civil Twilight 6:00 AM MDT 9:02 PM MDT
Nautical Twilight 5:18 AM MDT 9:44 PM MDT
Astronomical Twilight 4:32 AM MDT 10:30 PM MDT
Moon No Moon Rise 2:52 PM MDT (8/23)
Length of Visible Light 15h 02m
Length of Day
13h 55m
Waning Gibbous, 49% of the Moon is Illuminated
Aug 23
Waning Gibbous
Aug 30
New
Sep 5
First Quarter
Sep 13
Full
Sep 21
Last Quarter

Hourly Weather History & Observations

Time (MDT) Temp. Dew Point Humidity Pressure Visibility Wind Dir Wind Speed Gust Speed Precip Events Conditions
12:52 AM 57.2 °F 53.6 °F 88% 30.04 in 9.0 mi North 11.5 mph - N/A   Mostly Cloudy
12:56 AM 57.0 °F 54.0 °F 89% 29.99 in 8.0 mi North 12.7 mph - N/A   Mostly Cloudy
1:04 AM 55.9 °F 54.0 °F 93% 30.05 in 7.0 mi North 11.5 mph - N/A   Mostly Cloudy
1:42 AM 57.0 °F 55.0 °F 93% 30.06 in 6.0 mi NNE 10.4 mph - N/A   Overcast
1:54 AM 57.2 °F 55.4 °F 94% 30.07 in 9.0 mi NNE 9.2 mph - N/A   Overcast
1:56 AM 57.0 °F 55.0 °F 93% 30.02 in 9.0 mi NNE 9.2 mph - N/A   Overcast
2:56 AM 57.0 °F 53.1 °F 87% 30.02 in 10.0 mi NE 10.4 mph - N/A   Overcast
3:10 AM 57.0 °F 52.0 °F 83% 30.08 in 10.0 mi NE 10.4 mph - N/A   Overcast
3:56 AM 55.9 °F 52.0 °F 87% 30.02 in 10.0 mi NNE 8.1 mph - N/A   Overcast
4:56 AM 53.1 °F 51.1 °F 93% 30.02 in 10.0 mi North 6.9 mph - N/A   Partly Cloudy
5:27 AM 53.1 °F 51.1 °F 93% 30.08 in 10.0 mi North 5.8 mph - N/A   Mostly Cloudy
5:56 AM 54.0 °F 51.1 °F 90% 30.03 in 10.0 mi North 4.6 mph - N/A   Overcast
6:45 AM 52.0 °F 51.1 °F 97% 30.08 in 9.0 mi West 5.8 mph - N/A   Overcast
6:56 AM 52.0 °F 50.0 °F 93% 30.02 in 8.0 mi NW 5.8 mph - N/A   Mostly Cloudy
7:20 AM 51.1 °F 50.0 °F 96% 30.07 in 8.0 mi NW 4.6 mph - N/A   Scattered Clouds
7:56 AM 53.1 °F 51.1 °F 93% 30.03 in 10.0 mi NW 3.5 mph - N/A   Clear
8:56 AM 57.9 °F 51.1 °F 78% 30.02 in 10.0 mi SW 3.5 mph - N/A   Clear
9:56 AM 62.1 °F 51.1 °F 67% 30.01 in 10.0 mi South 3.5 mph - N/A   Clear
10:56 AM 66.0 °F 50.0 °F 56% 29.98 in 10.0 mi Variable 4.6 mph - N/A   Clear
11:56 AM 69.1 °F 46.9 °F 45% 29.96 in 10.0 mi SE 9.2 mph - N/A   Clear
12:56 PM 71.1 °F 46.9 °F 42% 29.91 in 10.0 mi SE 6.9 mph 20.7 mph N/A   Clear
1:56 PM 75.0 °F 46.0 °F 36% 29.88 in 10.0 mi SSW 16.1 mph - N/A   Clear
2:56 PM 75.9 °F 46.9 °F 36% 29.84 in 10.0 mi South 10.4 mph 18.4 mph N/A   Clear
3:56 PM 75.0 °F 46.9 °F 37% 29.83 in 10.0 mi WSW 8.1 mph - N/A   Mostly Cloudy
4:56 PM 79.0 °F 48.0 °F 34% 29.81 in 10.0 mi SSW 12.7 mph - N/A   Mostly Cloudy
5:38 PM 73.9 °F 44.1 °F 34% 29.88 in 10.0 mi WSW 18.4 mph - N/A   Mostly Cloudy
5:56 PM 77.0 °F 44.1 °F 31% 29.80 in 10.0 mi West 16.1 mph - N/A   Partly Cloudy
6:56 PM 75.0 °F 43.0 °F 32% 29.80 in 10.0 mi WSW 18.4 mph - N/A   Clear
7:56 PM 69.1 °F 44.1 °F 40% 29.80 in 10.0 mi WSW 9.2 mph - N/A   Clear
8:56 PM 66.9 °F 44.1 °F 44% 29.80 in 10.0 mi West 11.5 mph - N/A   Clear
9:56 PM 64.0 °F 45.0 °F 50% 29.81 in 10.0 mi WSW 6.9 mph - N/A   Clear
10:56 PM 64.9 °F 46.0 °F 50% 29.78 in 10.0 mi WSW 10.4 mph - N/A   Partly Cloudy
11:56 PM 62.1 °F 52.0 °F 70% 29.78 in 9.0 mi WSW 9.2 mph - 0.00 in Rain Light Rain